Weather History for Mobile, AL

Change the Weather History Date:

Monday, March 31, 2014

  Actual Average Record
Temperature  
Mean Temperature 58 °F 63 °F  
Max Temperature 74 °F 74 °F 86 °F (1978)
Min Temperature 41 °F 52 °F 31 °F (2003)
Degree Days  
Heating Degree Days 7 4  
Month to date heating degree days 276 188  
Since 1 July heating degree days 1979 1631  
Cooling Degree Days 0 2  
Month to date cooling degree days 1 39  
Year to date cooling degree days 13 55  
Growing Degree Days 7 (Base 50)    
Moisture  
Dew Point 44 °F    
Average Humidity 64    
Maximum Humidity 100    
Minimum Humidity 27    
Precipitation  
Precipitation 0.00 in 0.19 in 4.50 in (1899)
Month to date precipitation 6.50 6.14  
Year to date precipitation 13.62 16.91  
Snow  
Snow 0.00 in 0.00 in - ()
Month to date snowfall 0.0 0.1  
Since 1 July snowfall 1.3 0.2  
Snow Depth 0.00 in    
Sea Level Pressure  
Sea Level Pressure 30.14 in    
Wind  
Wind Speed 6 mph (SE)    
Max Wind Speed 15 mph    
Max Gust Speed 20 mph    
Visibility 10 miles    
Events      
T = Trace of Precipitation, MM = Missing Value Source: NWS Daily Summary

Daily Weather History Graph

Daily Weather History Graph

Search for Another Location

Airport:

Trip Planner

Search our weather history database for the weather conditions in past years. The results will help you decide how hot, cold, wet, or windy it might be!

Date:

Astronomy

Mar. 31, 2014 Rise Set
Actual Time 6:43 AM CDT 7:11 PM CDT
Civil Twilight 6:19 AM CDT 7:35 PM CDT
Nautical Twilight 5:50 AM CDT 8:04 PM CDT
Astronomical Twilight 5:21 AM CDT 8:32 PM CDT
Moon 7:10 AM CDT (3/31) 8:23 PM CDT (3/31)
Length of Visible Light 13h 16m
Length of Day
12h 28m
New Moon, 1% of the Moon is Illuminated
Mar 31
New Moon
Apr 7
First Quarter
Apr 15
Full
Apr 22
Last Quarter
Apr 29
New

Hourly Weather History & Observations

Time (CDT) Temp. Windchill Dew Point Humidity Pressure Visibility Wind Dir Wind Speed Gust Speed Precip Events Conditions
12:56 AM 46.0 °F - 46.0 °F 100% 30.14 in 10.0 mi Calm Calm - N/A   Clear
1:56 AM 45.0 °F - 44.1 °F 97% 30.13 in 10.0 mi Calm Calm - N/A   Clear
2:56 AM 44.1 °F - 43.0 °F 96% 30.13 in 10.0 mi Calm Calm - N/A   Clear
3:56 AM 43.0 °F - 43.0 °F 100% 30.12 in 10.0 mi Calm Calm - N/A   Clear
4:56 AM 45.0 °F 43.5 °F 44.1 °F 97% 30.12 in 10.0 mi ENE 3.5 mph - N/A   Clear
5:56 AM 45.0 °F - 43.0 °F 93% 30.13 in 7.0 mi Calm Calm - N/A   Clear
6:56 AM 44.1 °F - 42.1 °F 93% 30.15 in 7.0 mi Calm Calm - N/A   Partly Cloudy
7:56 AM 50.0 °F - 46.9 °F 89% 30.17 in 10.0 mi Calm Calm - N/A   Partly Cloudy
8:56 AM 59.0 °F - 43.0 °F 55% 30.18 in 10.0 mi East 8.1 mph - N/A   Partly Cloudy
9:56 AM 64.9 °F - 39.9 °F 40% 30.19 in 10.0 mi East 11.5 mph - N/A   Clear
10:56 AM 68.0 °F - 36.0 °F 31% 30.19 in 10.0 mi ESE 10.4 mph - N/A   Partly Cloudy
11:56 AM 69.1 °F - 35.1 °F 29% 30.19 in 10.0 mi SSE 9.2 mph - N/A   Partly Cloudy
12:56 PM 72.0 °F - 41.0 °F 33% 30.17 in 10.0 mi SE 12.7 mph 19.6 mph N/A   Mostly Cloudy
1:56 PM 73.0 °F - 39.0 °F 29% 30.15 in 10.0 mi SSE 11.5 mph - N/A   Mostly Cloudy
2:56 PM 73.0 °F - 39.0 °F 29% 30.13 in 10.0 mi South 9.2 mph - N/A   Mostly Cloudy
3:56 PM 73.0 °F - 37.0 °F 27% 30.12 in 10.0 mi SSE 10.4 mph - N/A   Scattered Clouds
4:56 PM 72.0 °F - 41.0 °F 33% 30.10 in 10.0 mi SE 10.4 mph - N/A   Scattered Clouds
5:56 PM 69.1 °F - 46.0 °F 44% 30.11 in 10.0 mi South 10.4 mph - N/A   Scattered Clouds
6:56 PM 64.9 °F - 46.9 °F 52% 30.11 in 10.0 mi South 9.2 mph - N/A   Partly Cloudy
7:56 PM 59.0 °F - 48.9 °F 69% 30.11 in 10.0 mi South 5.8 mph - N/A   Partly Cloudy
8:56 PM 55.9 °F - 50.0 °F 80% 30.12 in 10.0 mi SE 5.8 mph - N/A   Clear
9:56 PM 55.9 °F - 51.1 °F 84% 30.13 in 10.0 mi SSE 4.6 mph - N/A   Clear
10:56 PM 51.1 °F - 51.1 °F 100% 30.14 in 10.0 mi Calm Calm - N/A   Clear
11:56 PM 48.9 °F - 48.9 °F 100% 30.15 in 10.0 mi Calm Calm - N/A   Clear